Year,Month,Day,Hour,Minute,Value (Times are PST for temperature in C)
2009,02,21,00,00,-0.20
2009,02,21,00,01,-0.20
2009,02,21,00,02,-0.30
2009,02,21,00,03,-0.30
2009,02,21,00,04,-0.30
2009,02,21,00,05,-0.30
2009,02,21,00,06,-0.30
2009,02,21,00,07,-0.30
2009,02,21,00,08,-0.30
2009,02,21,00,09,-0.30
2009,02,21,00,10,-0.30
2009,02,21,00,11,-0.30
2009,02,21,00,12,-0.30
2009,02,21,00,13,-0.30
2009,02,21,00,14,-0.30
2009,02,21,00,15,-0.30
2009,02,21,00,16,-0.30
2009,02,21,00,17,-0.30
2009,02,21,00,18,-0.30
2009,02,21,00,19,-0.30
2009,02,21,00,20,-0.30
2009,02,21,00,21,-0.30
2009,02,21,00,22,-0.30
2009,02,21,00,23,-0.30
2009,02,21,00,24,-0.30
2009,02,21,00,25,-0.20
2009,02,21,00,26,-0.20
2009,02,21,00,27,-0.20
2009,02,21,00,28,-0.20
2009,02,21,00,29,-0.20
2009,02,21,00,30,-0.20
2009,02,21,00,31,-0.20
2009,02,21,00,32,-0.20
2009,02,21,00,33,-0.20
2009,02,21,00,34,-0.10
2009,02,21,00,35,-0.10
2009,02,21,00,36,-0.10
2009,02,21,00,37,0.00
2009,02,21,00,38,0.10
2009,02,21,00,39,0.20
2009,02,21,00,40,0.20
2009,02,21,00,41,0.30
2009,02,21,00,42,0.30
2009,02,21,00,43,0.40
2009,02,21,00,44,0.50
2009,02,21,00,45,0.60
2009,02,21,00,46,0.60
2009,02,21,00,47,0.60
2009,02,21,00,48,0.60
2009,02,21,00,49,0.60
2009,02,21,00,50,0.60
2009,02,21,00,51,0.60
2009,02,21,00,52,0.70
2009,02,21,00,53,0.70
2009,02,21,00,54,0.80
2009,02,21,00,55,0.80
2009,02,21,00,56,0.90
2009,02,21,00,57,1.00
2009,02,21,00,58,1.10
2009,02,21,00,59,1.20
2009,02,21,01,00,1.20
2009,02,21,01,01,1.30
2009,02,21,01,02,1.40
2009,02,21,01,03,1.40
2009,02,21,01,04,1.50
2009,02,21,01,05,1.60
2009,02,21,01,06,1.70
2009,02,21,01,07,1.80
2009,02,21,01,08,1.80
2009,02,21,01,09,1.90
2009,02,21,01,10,2.10
2009,02,21,01,11,2.20
2009,02,21,01,12,2.30
2009,02,21,01,13,2.40
2009,02,21,01,14,2.50
2009,02,21,01,15,2.60
2009,02,21,01,16,2.70
2009,02,21,01,17,2.70
2009,02,21,01,18,2.70
2009,02,21,01,19,2.70
2009,02,21,01,20,2.70
2009,02,21,01,21,2.70
2009,02,21,01,22,2.70
2009,02,21,01,23,2.80
2009,02,21,01,24,2.80
2009,02,21,01,25,2.80
2009,02,21,01,26,2.90
2009,02,21,01,27,3.00
2009,02,21,01,28,3.00
2009,02,21,01,29,3.00
2009,02,21,01,30,3.00
2009,02,21,01,31,3.00
2009,02,21,01,32,3.00
2009,02,21,01,33,3.00
2009,02,21,01,34,2.90
2009,02,21,01,35,2.90
2009,02,21,01,36,2.90
2009,02,21,01,37,2.80
2009,02,21,01,38,2.80
2009,02,21,01,39,2.80
2009,02,21,01,40,2.70
2009,02,21,01,41,2.70
2009,02,21,01,42,2.60
2009,02,21,01,43,2.60
2009,02,21,01,44,2.50
2009,02,21,01,45,2.40
2009,02,21,01,46,2.30
2009,02,21,01,47,2.20
2009,02,21,01,48,2.10
2009,02,21,01,49,2.00
2009,02,21,01,50,1.90
2009,02,21,01,51,1.80
2009,02,21,01,52,1.70
2009,02,21,01,53,1.70
2009,02,21,01,54,1.60
2009,02,21,01,55,1.60
2009,02,21,01,56,1.50
2009,02,21,01,57,1.50
2009,02,21,01,58,1.50
2009,02,21,01,59,1.50
2009,02,21,02,00,1.50
2009,02,21,02,01,1.50
2009,02,21,02,02,1.50
2009,02,21,02,03,1.40
2009,02,21,02,04,1.40
2009,02,21,02,05,1.40
2009,02,21,02,06,1.40
2009,02,21,02,07,1.40
2009,02,21,02,08,1.50
2009,02,21,02,09,1.50
2009,02,21,02,10,1.60
2009,02,21,02,11,1.70
2009,02,21,02,12,1.80
2009,02,21,02,13,2.10
2009,02,21,02,14,2.30
2009,02,21,02,15,2.40
2009,02,21,02,16,2.60
2009,02,21,02,17,2.70
2009,02,21,02,18,2.80
2009,02,21,02,19,2.90
2009,02,21,02,20,3.00
2009,02,21,02,21,3.00
2009,02,21,02,22,3.00
2009,02,21,02,23,3.00
2009,02,21,02,24,3.00
2009,02,21,02,25,2.90
2009,02,21,02,26,2.90
2009,02,21,02,27,2.90
2009,02,21,02,28,2.90
2009,02,21,02,29,2.90
2009,02,21,02,30,2.80
2009,02,21,02,31,2.80
2009,02,21,02,32,2.80
2009,02,21,02,33,2.80
2009,02,21,02,34,2.80
2009,02,21,02,35,2.80
2009,02,21,02,36,2.80
2009,02,21,02,37,2.80
2009,02,21,02,38,2.80
2009,02,21,02,39,2.80
2009,02,21,02,40,2.80
2009,02,21,02,41,2.80
2009,02,21,02,42,2.80
2009,02,21,02,43,2.80
2009,02,21,02,44,2.80
2009,02,21,02,45,2.80
2009,02,21,02,46,2.70
2009,02,21,02,47,2.70
2009,02,21,02,48,2.70
2009,02,21,02,49,2.70
2009,02,21,02,50,2.70
2009,02,21,02,51,2.60
2009,02,21,02,52,2.60
2009,02,21,02,53,2.60
2009,02,21,02,54,2.60
2009,02,21,02,55,2.60
2009,02,21,02,56,2.60
2009,02,21,02,57,2.70
2009,02,21,02,58,2.70
2009,02,21,02,59,2.80
2009,02,21,03,00,2.90
2009,02,21,03,01,3.00
2009,02,21,03,02,3.00
2009,02,21,03,03,3.10
2009,02,21,03,04,3.10
2009,02,21,03,05,3.20
2009,02,21,03,06,3.20
2009,02,21,03,07,3.30
2009,02,21,03,08,3.30
2009,02,21,03,09,3.30
2009,02,21,03,10,3.30
2009,02,21,03,11,3.40
2009,02,21,03,12,3.40
2009,02,21,03,13,3.40
2009,02,21,03,14,3.40
2009,02,21,03,15,3.40
2009,02,21,03,16,3.40
2009,02,21,03,17,3.40
2009,02,21,03,18,3.40
2009,02,21,03,19,3.40
2009,02,21,03,20,3.40
2009,02,21,03,21,3.40
2009,02,21,03,22,3.30
2009,02,21,03,23,3.30
2009,02,21,03,24,3.30
2009,02,21,03,25,3.30
2009,02,21,03,26,3.20
2009,02,21,03,27,3.20
2009,02,21,03,28,3.20
2009,02,21,03,29,3.20
2009,02,21,03,30,3.20
2009,02,21,03,31,3.20
2009,02,21,03,32,3.20
2009,02,21,03,33,3.30
2009,02,21,03,34,3.30
2009,02,21,03,35,3.30
2009,02,21,03,36,3.30
2009,02,21,03,37,3.30
2009,02,21,03,38,3.30
2009,02,21,03,39,3.40
2009,02,21,03,40,3.40
2009,02,21,03,41,3.40
2009,02,21,03,42,3.40
2009,02,21,03,43,3.40
2009,02,21,03,44,3.40
2009,02,21,03,45,3.40
2009,02,21,03,46,3.50
2009,02,21,03,47,3.50
2009,02,21,03,48,3.50
2009,02,21,03,49,3.50
2009,02,21,03,50,3.50
2009,02,21,03,51,3.40
2009,02,21,03,52,3.40
2009,02,21,03,53,3.40
2009,02,21,03,54,3.40
2009,02,21,03,55,3.40
2009,02,21,03,56,3.30
2009,02,21,03,57,3.30
2009,02,21,03,58,3.30
2009,02,21,03,59,3.30
2009,02,21,04,00,3.30
2009,02,21,04,01,3.20
2009,02,21,04,02,3.20
2009,02,21,04,03,3.20
2009,02,21,04,04,3.10
2009,02,21,04,05,3.10
2009,02,21,04,06,3.10
2009,02,21,04,07,3.00
2009,02,21,04,08,3.00
2009,02,21,04,09,2.90
2009,02,21,04,10,2.90
2009,02,21,04,11,2.90
2009,02,21,04,12,2.80
2009,02,21,04,13,2.80
2009,02,21,04,14,2.70
2009,02,21,04,15,2.70
2009,02,21,04,16,2.60
2009,02,21,04,17,2.50
2009,02,21,04,18,2.40
2009,02,21,04,19,2.40
2009,02,21,04,20,2.30
2009,02,21,04,21,2.30
2009,02,21,04,22,2.20
2009,02,21,04,23,2.20
2009,02,21,04,24,2.20
2009,02,21,04,25,2.10
2009,02,21,04,26,2.10
2009,02,21,04,27,2.00
2009,02,21,04,28,2.00
2009,02,21,04,29,1.90
2009,02,21,04,30,1.90
2009,02,21,04,31,1.90
2009,02,21,04,32,1.90
2009,02,21,04,33,1.80
2009,02,21,04,34,1.80
2009,02,21,04,35,1.80
2009,02,21,04,36,1.70
2009,02,21,04,37,1.70
2009,02,21,04,38,1.70
2009,02,21,04,39,1.60
2009,02,21,04,40,1.60
2009,02,21,04,41,1.60
2009,02,21,04,42,1.60
2009,02,21,04,43,1.60
2009,02,21,04,44,1.70
2009,02,21,04,45,1.70
2009,02,21,04,46,1.70
2009,02,21,04,47,1.70
2009,02,21,04,48,1.80
2009,02,21,04,49,1.80
2009,02,21,04,50,1.80
2009,02,21,04,51,1.90
2009,02,21,04,52,1.90
2009,02,21,04,53,1.90
2009,02,21,04,54,1.90
2009,02,21,04,55,2.00
2009,02,21,04,56,2.00
2009,02,21,04,57,2.10
2009,02,21,04,58,2.10
2009,02,21,04,59,2.10
2009,02,21,05,00,2.10
2009,02,21,05,01,2.20
2009,02,21,05,02,2.20
2009,02,21,05,03,2.20
2009,02,21,05,04,2.20
2009,02,21,05,05,2.20
2009,02,21,05,06,2.20
2009,02,21,05,07,2.20
2009,02,21,05,08,2.30
2009,02,21,05,09,2.30
2009,02,21,05,10,2.40
2009,02,21,05,11,2.50
2009,02,21,05,12,2.60
2009,02,21,05,13,2.60
2009,02,21,05,14,2.70
2009,02,21,05,15,2.80
2009,02,21,05,16,2.90
2009,02,21,05,17,3.00
2009,02,21,05,18,3.20
2009,02,21,05,19,3.30
2009,02,21,05,20,3.30
2009,02,21,05,21,3.40
2009,02,21,05,22,3.40
2009,02,21,05,23,3.40
2009,02,21,05,24,3.40
2009,02,21,05,25,3.50
2009,02,21,05,26,3.50
2009,02,21,05,27,3.50
2009,02,21,05,28,3.50
2009,02,21,05,29,3.50
2009,02,21,05,30,3.50
2009,02,21,05,31,3.60
2009,02,21,05,32,3.60
2009,02,21,05,33,3.60
2009,02,21,05,34,3.50
2009,02,21,05,35,3.50
2009,02,21,05,36,3.40
2009,02,21,05,37,3.30
2009,02,21,05,38,3.20
2009,02,21,05,39,3.20
2009,02,21,05,40,3.10
2009,02,21,05,41,3.10
2009,02,21,05,42,3.00
2009,02,21,05,43,2.90
2009,02,21,05,44,2.90
2009,02,21,05,45,2.80
2009,02,21,05,46,2.80
2009,02,21,05,47,2.80
2009,02,21,05,48,2.70
2009,02,21,05,49,2.70
2009,02,21,05,50,2.70
2009,02,21,05,51,2.60
2009,02,21,05,52,2.60
2009,02,21,05,53,2.50
2009,02,21,05,54,2.50
2009,02,21,05,55,2.40
2009,02,21,05,56,2.40
2009,02,21,05,57,2.40
2009,02,21,05,58,2.30
2009,02,21,05,59,2.30
2009,02,21,06,00,2.20
2009,02,21,06,01,2.20
2009,02,21,06,02,2.20
2009,02,21,06,03,2.20
2009,02,21,06,04,2.20
2009,02,21,06,05,2.30
2009,02,21,06,06,2.30
2009,02,21,06,07,2.30
2009,02,21,06,08,2.30
2009,02,21,06,09,2.30
2009,02,21,06,10,2.30
2009,02,21,06,11,2.20
2009,02,21,06,12,2.20
2009,02,21,06,13,2.30
2009,02,21,06,14,2.30
2009,02,21,06,15,2.30
2009,02,21,06,16,2.30
2009,02,21,06,17,2.30
2009,02,21,06,18,2.30
2009,02,21,06,19,2.30
2009,02,21,06,20,2.40
2009,02,21,06,21,2.40
2009,02,21,06,22,2.40
2009,02,21,06,23,2.30
2009,02,21,06,24,2.30
2009,02,21,06,25,2.30
2009,02,21,06,26,2.30
2009,02,21,06,27,2.30
2009,02,21,06,28,2.30
2009,02,21,06,29,2.40
2009,02,21,06,30,2.40
2009,02,21,06,31,2.40
2009,02,21,06,32,2.40
2009,02,21,06,33,2.50
2009,02,21,06,34,2.60
2009,02,21,06,35,2.60
2009,02,21,06,36,2.70
2009,02,21,06,37,2.70
2009,02,21,06,38,2.70
2009,02,21,06,39,2.70
2009,02,21,06,40,2.70
2009,02,21,06,41,2.70
2009,02,21,06,42,2.70
2009,02,21,06,43,2.70
2009,02,21,06,44,2.70
2009,02,21,06,45,2.70
2009,02,21,06,46,2.80
2009,02,21,06,47,2.80
2009,02,21,06,48,2.80
2009,02,21,06,49,2.90
2009,02,21,06,50,2.90
2009,02,21,06,51,3.00
2009,02,21,06,52,3.00
2009,02,21,06,53,3.10
2009,02,21,06,54,3.10
2009,02,21,06,55,3.10
2009,02,21,06,56,3.10
2009,02,21,06,57,3.10
2009,02,21,06,58,3.10
2009,02,21,06,59,3.10
2009,02,21,07,00,3.10
2009,02,21,07,01,3.10
2009,02,21,07,02,3.10
2009,02,21,07,03,3.20
2009,02,21,07,04,3.20
2009,02,21,07,05,3.20
2009,02,21,07,06,3.20
2009,02,21,07,07,3.20
2009,02,21,07,08,3.30
2009,02,21,07,09,3.30
2009,02,21,07,10,3.30
2009,02,21,07,11,3.30
2009,02,21,07,12,3.40
2009,02,21,07,13,3.40
2009,02,21,07,14,3.50
2009,02,21,07,15,3.50
2009,02,21,07,16,3.60
2009,02,21,07,17,3.60
2009,02,21,07,18,3.60
2009,02,21,07,19,3.70
2009,02,21,07,20,3.70
2009,02,21,07,21,3.70
2009,02,21,07,22,3.80
2009,02,21,07,23,3.80
2009,02,21,07,24,3.90
2009,02,21,07,25,3.90
2009,02,21,07,26,3.80
2009,02,21,07,27,3.90
2009,02,21,07,28,3.90
2009,02,21,07,29,3.90
2009,02,21,07,30,3.90
2009,02,21,07,31,3.90
2009,02,21,07,32,3.90
2009,02,21,07,33,3.90
2009,02,21,07,34,3.90
2009,02,21,07,35,3.90
2009,02,21,07,36,3.90
2009,02,21,07,37,3.80
2009,02,21,07,38,3.90
2009,02,21,07,39,3.90
2009,02,21,07,40,3.90
2009,02,21,07,41,3.90
2009,02,21,07,42,3.90
2009,02,21,07,43,3.90
2009,02,21,07,44,3.90
2009,02,21,07,45,3.90
2009,02,21,07,46,3.90
2009,02,21,07,47,3.80
2009,02,21,07,48,3.80
2009,02,21,07,49,3.80
2009,02,21,07,50,3.90
2009,02,21,07,51,3.90
2009,02,21,07,52,4.00
2009,02,21,07,53,4.00
2009,02,21,07,54,4.00
2009,02,21,07,55,4.10
2009,02,21,07,56,4.10
2009,02,21,07,57,4.20
2009,02,21,07,58,4.20
2009,02,21,07,59,4.20
2009,02,21,08,00,4.30
2009,02,21,08,01,4.30
2009,02,21,08,02,4.30
2009,02,21,08,03,4.30
2009,02,21,08,04,4.40
2009,02,21,08,05,4.40
2009,02,21,08,06,4.40
2009,02,21,08,07,4.50
2009,02,21,08,08,4.50
2009,02,21,08,09,4.60
2009,02,21,08,10,4.60
2009,02,21,08,11,4.60
2009,02,21,08,12,4.70
2009,02,21,08,13,4.70
2009,02,21,08,14,4.80
2009,02,21,08,15,4.90
2009,02,21,08,16,4.90
2009,02,21,08,17,5.00
2009,02,21,08,18,5.10
2009,02,21,08,19,5.20
2009,02,21,08,20,5.30
2009,02,21,08,21,5.30
2009,02,21,08,22,5.40
2009,02,21,08,23,5.50
2009,02,21,08,24,5.50
2009,02,21,08,25,5.60
2009,02,21,08,26,5.60
2009,02,21,08,27,5.70
2009,02,21,08,28,5.70
2009,02,21,08,29,5.70
2009,02,21,08,30,5.70
2009,02,21,08,31,5.80
2009,02,21,08,32,5.80
2009,02,21,08,33,5.80
2009,02,21,08,34,5.90
2009,02,21,08,35,5.90
2009,02,21,08,36,5.90
2009,02,21,08,37,5.90
2009,02,21,08,38,6.00
2009,02,21,08,39,6.00
2009,02,21,08,40,6.00
2009,02,21,08,41,6.10
2009,02,21,08,42,6.10
2009,02,21,08,43,6.10
2009,02,21,08,44,6.20
2009,02,21,08,45,6.20
2009,02,21,08,46,6.20
2009,02,21,08,47,6.30
2009,02,21,08,48,6.30
2009,02,21,08,49,6.40
2009,02,21,08,50,6.40
2009,02,21,08,51,6.50
2009,02,21,08,52,6.50
2009,02,21,08,53,6.60
2009,02,21,08,54,6.60
2009,02,21,08,55,6.70
2009,02,21,08,56,6.70
2009,02,21,08,57,6.80
2009,02,21,08,58,6.80
2009,02,21,08,59,6.90
2009,02,21,09,00,6.90
2009,02,21,09,01,7.00
2009,02,21,09,02,7.10
2009,02,21,09,03,7.10
2009,02,21,09,04,7.20
2009,02,21,09,05,7.20
2009,02,21,09,06,7.30
2009,02,21,09,07,7.30
2009,02,21,09,08,7.40
2009,02,21,09,09,7.40
2009,02,21,09,10,7.40
2009,02,21,09,11,7.50
2009,02,21,09,12,7.50
2009,02,21,09,13,7.60
2009,02,21,09,14,7.70
2009,02,21,09,15,7.70
2009,02,21,09,16,7.80
2009,02,21,09,17,7.80
2009,02,21,09,18,7.80
2009,02,21,09,19,7.80
2009,02,21,09,20,7.80
2009,02,21,09,21,7.80
2009,02,21,09,22,7.80
2009,02,21,09,23,7.80
2009,02,21,09,24,7.80
2009,02,21,09,25,7.80
2009,02,21,09,26,7.80
2009,02,21,09,27,7.80
2009,02,21,09,28,7.80
2009,02,21,09,29,7.80
2009,02,21,09,30,7.90
2009,02,21,09,31,7.80
2009,02,21,09,32,7.80
2009,02,21,09,33,7.80
2009,02,21,09,34,7.80
2009,02,21,09,35,7.70
2009,02,21,09,36,7.70
2009,02,21,09,37,7.70
2009,02,21,09,38,7.70
2009,02,21,09,39,7.70
2009,02,21,09,40,7.70
2009,02,21,09,41,7.70
2009,02,21,09,42,7.80
2009,02,21,09,43,7.80
2009,02,21,09,44,7.80
2009,02,21,09,45,7.80
2009,02,21,09,46,7.80
2009,02,21,09,47,7.80
2009,02,21,09,48,7.80
2009,02,21,09,49,7.80
2009,02,21,09,50,7.70
2009,02,21,09,51,7.70
2009,02,21,09,52,7.70
2009,02,21,09,53,7.60
2009,02,21,09,54,7.60
2009,02,21,09,55,7.60
2009,02,21,09,56,7.60
2009,02,21,09,57,7.60
2009,02,21,09,58,7.60
2009,02,21,09,59,7.70
2009,02,21,10,00,7.70
2009,02,21,10,01,7.70
2009,02,21,10,02,7.70
2009,02,21,10,03,7.70
2009,02,21,10,04,7.70
2009,02,21,10,05,7.70
2009,02,21,10,06,7.70
2009,02,21,10,07,7.70
2009,02,21,10,08,7.70
2009,02,21,10,09,7.70
2009,02,21,10,10,7.70
2009,02,21,10,11,7.70
2009,02,21,10,12,7.80
2009,02,21,10,13,7.80
2009,02,21,10,14,7.80
2009,02,21,10,15,7.80
2009,02,21,10,16,7.80
2009,02,21,10,17,7.80
2009,02,21,10,18,7.80
2009,02,21,10,19,7.80
2009,02,21,10,20,7.90
2009,02,21,10,21,7.90
2009,02,21,10,22,7.90
2009,02,21,10,23,7.90
2009,02,21,10,24,8.00
2009,02,21,10,25,8.00
2009,02,21,10,26,8.10
2009,02,21,10,27,8.20
2009,02,21,10,28,8.20
2009,02,21,10,29,8.30
2009,02,21,10,30,8.30
2009,02,21,10,31,8.40
2009,02,21,10,32,8.40
2009,02,21,10,33,8.50
2009,02,21,10,34,8.50
2009,02,21,10,35,8.60
2009,02,21,10,36,8.70
2009,02,21,10,37,8.80
2009,02,21,10,38,8.80
2009,02,21,10,39,8.80
2009,02,21,10,40,8.80
2009,02,21,10,41,8.90
2009,02,21,10,42,8.90
2009,02,21,10,43,8.90
2009,02,21,10,44,8.90
2009,02,21,10,45,8.90
2009,02,21,10,46,8.90
2009,02,21,10,47,8.90
2009,02,21,10,48,8.90
2009,02,21,10,49,8.90
2009,02,21,10,50,8.90
2009,02,21,10,51,8.90
2009,02,21,10,52,8.80
2009,02,21,10,53,8.80
2009,02,21,10,54,8.80
2009,02,21,10,55,8.80
2009,02,21,10,56,8.80
2009,02,21,10,57,8.80
2009,02,21,10,58,8.80
2009,02,21,10,59,8.80
2009,02,21,11,00,8.80
2009,02,21,11,01,8.80
2009,02,21,11,02,8.80
2009,02,21,11,03,8.80
2009,02,21,11,04,8.80
2009,02,21,11,05,8.80
2009,02,21,11,06,8.80
2009,02,21,11,07,8.80
2009,02,21,11,08,8.80
2009,02,21,11,09,8.80
2009,02,21,11,10,8.80
2009,02,21,11,11,8.80
2009,02,21,11,12,8.80
2009,02,21,11,13,8.80
2009,02,21,11,14,8.80
2009,02,21,11,15,8.80
2009,02,21,11,16,8.80
2009,02,21,11,17,8.70
2009,02,21,11,18,8.70
2009,02,21,11,19,8.70
2009,02,21,11,20,8.70
2009,02,21,11,21,8.70
2009,02,21,11,22,8.70
2009,02,21,11,23,8.70
2009,02,21,11,24,8.70
2009,02,21,11,25,8.70
2009,02,21,11,26,8.60
2009,02,21,11,27,8.60
2009,02,21,11,28,8.70
2009,02,21,11,29,8.70
2009,02,21,11,30,8.70
2009,02,21,11,31,8.70
2009,02,21,11,32,8.80
2009,02,21,11,33,8.80
2009,02,21,11,34,8.80
2009,02,21,11,35,8.80
2009,02,21,11,36,8.80
2009,02,21,11,37,8.80
2009,02,21,11,38,8.90
2009,02,21,11,39,8.90
2009,02,21,11,40,8.90
2009,02,21,11,41,8.90
2009,02,21,11,42,8.90
2009,02,21,11,43,9.00
2009,02,21,11,44,9.00
2009,02,21,11,45,9.00
2009,02,21,11,46,9.00
2009,02,21,11,47,9.00
2009,02,21,11,48,9.10
2009,02,21,11,49,9.10
2009,02,21,11,50,9.20
2009,02,21,11,51,9.20
2009,02,21,11,52,9.20
2009,02,21,11,53,9.20
2009,02,21,11,54,9.30
2009,02,21,11,55,9.30
2009,02,21,11,56,9.30
2009,02,21,11,57,9.30
2009,02,21,11,58,9.30
2009,02,21,11,59,9.30
2009,02,21,12,00,9.30
2009,02,21,12,01,9.30
2009,02,21,12,02,9.30
2009,02,21,12,03,9.30
2009,02,21,12,04,9.30
2009,02,21,12,05,9.30
2009,02,21,12,06,9.30
2009,02,21,12,07,9.30
2009,02,21,12,08,9.30
2009,02,21,12,09,9.30
2009,02,21,12,10,9.30
2009,02,21,12,11,9.30
2009,02,21,12,12,9.30
2009,02,21,12,13,9.30
2009,02,21,12,14,9.30
2009,02,21,12,15,9.30
2009,02,21,12,16,9.30
2009,02,21,12,17,9.30
2009,02,21,12,18,9.20
2009,02,21,12,19,9.20
2009,02,21,12,20,9.20
2009,02,21,12,21,9.20
2009,02,21,12,22,9.20
2009,02,21,12,23,9.20
2009,02,21,12,24,9.10
2009,02,21,12,25,9.10
2009,02,21,12,26,9.10
2009,02,21,12,27,9.20
2009,02,21,12,28,9.20
2009,02,21,12,29,9.20
2009,02,21,12,30,9.20
2009,02,21,12,31,9.20
2009,02,21,12,32,9.20
2009,02,21,12,33,9.20
2009,02,21,12,34,9.20
2009,02,21,12,35,9.30
2009,02,21,12,36,9.30
2009,02,21,12,37,9.30
2009,02,21,12,38,9.30
2009,02,21,12,39,9.30
2009,02,21,12,40,9.30
2009,02,21,12,41,9.40
2009,02,21,12,42,9.40
2009,02,21,12,43,9.40
2009,02,21,12,44,9.40
2009,02,21,12,45,9.50
2009,02,21,12,46,9.50
2009,02,21,12,47,9.50
2009,02,21,12,48,9.50
2009,02,21,12,49,9.50
2009,02,21,12,50,9.50
2009,02,21,12,51,9.50
2009,02,21,12,52,9.40
2009,02,21,12,53,9.50
2009,02,21,12,54,9.50
2009,02,21,12,55,9.40
2009,02,21,12,56,9.40
2009,02,21,12,57,9.40
2009,02,21,12,58,9.50
2009,02,21,12,59,9.50
2009,02,21,13,00,9.50
2009,02,21,13,01,9.50
2009,02,21,13,02,9.50
2009,02,21,13,03,9.50
2009,02,21,13,04,9.50
2009,02,21,13,05,9.50
2009,02,21,13,06,9.50
2009,02,21,13,07,9.50
2009,02,21,13,08,9.50
2009,02,21,13,09,9.60
2009,02,21,13,10,9.60
2009,02,21,13,11,9.60
2009,02,21,13,12,9.60
2009,02,21,13,13,9.60
2009,02,21,13,14,9.60
2009,02,21,13,15,9.60
2009,02,21,13,16,9.60
2009,02,21,13,17,9.50
2009,02,21,13,18,9.50
2009,02,21,13,19,9.50
2009,02,21,13,20,9.50
2009,02,21,13,21,9.50
2009,02,21,13,22,9.40
2009,02,21,13,23,9.40
2009,02,21,13,24,9.40
2009,02,21,13,25,9.40
2009,02,21,13,26,9.40
2009,02,21,13,27,9.40
2009,02,21,13,28,9.40
2009,02,21,13,29,9.40
2009,02,21,13,30,9.40
2009,02,21,13,31,9.40
2009,02,21,13,32,9.40
2009,02,21,13,33,9.40
2009,02,21,13,34,9.40
2009,02,21,13,35,9.40
2009,02,21,13,36,9.40
2009,02,21,13,37,9.40
2009,02,21,13,38,9.40
2009,02,21,13,39,9.40
2009,02,21,13,40,9.40
2009,02,21,13,41,9.40
2009,02,21,13,42,9.50
2009,02,21,13,43,9.50
2009,02,21,13,44,9.50
2009,02,21,13,45,9.50
2009,02,21,13,46,9.50
2009,02,21,13,47,9.50
2009,02,21,13,48,9.60
2009,02,21,13,49,9.60
2009,02,21,13,50,9.60
2009,02,21,13,51,9.60
2009,02,21,13,52,9.60
2009,02,21,13,53,9.60
2009,02,21,13,54,9.60
2009,02,21,13,55,9.70
2009,02,21,13,56,9.70
2009,02,21,13,57,9.70
2009,02,21,13,58,9.70
2009,02,21,13,59,9.70
2009,02,21,14,00,9.70
2009,02,21,14,01,9.70
2009,02,21,14,02,9.70
2009,02,21,14,03,9.70
2009,02,21,14,04,9.70
2009,02,21,14,05,9.70
2009,02,21,14,06,9.70
2009,02,21,14,07,9.80
2009,02,21,14,08,9.80
2009,02,21,14,09,9.80
2009,02,21,14,10,9.90
2009,02,21,14,11,9.90
2009,02,21,14,12,9.90
2009,02,21,14,13,9.90
2009,02,21,14,14,9.90
2009,02,21,14,15,9.90
2009,02,21,14,16,9.90
2009,02,21,14,17,9.90
2009,02,21,14,18,9.90
2009,02,21,14,19,9.90
2009,02,21,14,20,9.90
2009,02,21,14,21,10.00
2009,02,21,14,22,10.00
2009,02,21,14,23,10.10
2009,02,21,14,24,10.20
2009,02,21,14,25,10.20
2009,02,21,14,26,10.20
2009,02,21,14,27,10.20
2009,02,21,14,28,10.20
2009,02,21,14,29,10.30
2009,02,21,14,30,10.30
2009,02,21,14,31,10.30
2009,02,21,14,32,10.40
2009,02,21,14,33,10.40
2009,02,21,14,34,10.50
2009,02,21,14,35,10.60
2009,02,21,14,36,10.60
2009,02,21,14,37,10.70
2009,02,21,14,38,10.70
2009,02,21,14,39,10.80
2009,02,21,14,40,10.80
2009,02,21,14,41,10.80
2009,02,21,14,42,10.80
2009,02,21,14,43,10.90
2009,02,21,14,44,10.90
2009,02,21,14,45,10.90
2009,02,21,14,46,10.80
2009,02,21,14,47,10.80
2009,02,21,14,48,10.80
2009,02,21,14,49,10.80
2009,02,21,14,50,10.90
2009,02,21,14,51,10.90
2009,02,21,14,52,10.90
2009,02,21,14,53,10.90
2009,02,21,14,54,10.90
2009,02,21,14,55,10.90
2009,02,21,14,56,10.90
2009,02,21,14,57,11.00
2009,02,21,14,58,11.00
2009,02,21,14,59,11.10
2009,02,21,15,00,11.10
2009,02,21,15,01,11.10
2009,02,21,15,02,11.10
2009,02,21,15,03,11.10
2009,02,21,15,04,11.10
2009,02,21,15,05,11.10
2009,02,21,15,06,11.00
2009,02,21,15,07,11.00
2009,02,21,15,08,11.00
2009,02,21,15,09,10.90
2009,02,21,15,10,10.90
2009,02,21,15,11,10.90
2009,02,21,15,12,10.90
2009,02,21,15,13,10.80
2009,02,21,15,14,10.80
2009,02,21,15,15,10.80
2009,02,21,15,16,10.70
2009,02,21,15,17,10.70
2009,02,21,15,18,10.70
2009,02,21,15,19,10.70
2009,02,21,15,20,10.70
2009,02,21,15,21,10.70
2009,02,21,15,22,10.70
2009,02,21,15,23,10.60
2009,02,21,15,24,10.60
2009,02,21,15,25,10.60
2009,02,21,15,26,10.60
2009,02,21,15,27,10.60
2009,02,21,15,28,10.50
2009,02,21,15,29,10.50
2009,02,21,15,30,10.50
2009,02,21,15,31,10.40
2009,02,21,15,32,10.40
2009,02,21,15,33,10.40
2009,02,21,15,34,10.40
2009,02,21,15,35,10.40
2009,02,21,15,36,10.40
2009,02,21,15,37,10.40
2009,02,21,15,38,10.40
2009,02,21,15,39,10.30
2009,02,21,15,40,10.30
2009,02,21,15,41,10.30
2009,02,21,15,42,10.30
2009,02,21,15,43,10.20
2009,02,21,15,44,10.20
2009,02,21,15,45,10.20
2009,02,21,15,46,10.20
2009,02,21,15,47,10.20
2009,02,21,15,48,10.20
2009,02,21,15,49,10.10
2009,02,21,15,50,10.10
2009,02,21,15,51,10.10
2009,02,21,15,52,10.00
2009,02,21,15,53,10.00
2009,02,21,15,54,10.00
2009,02,21,15,55,10.00
2009,02,21,15,56,9.90
2009,02,21,15,57,9.90
2009,02,21,15,58,9.90
2009,02,21,15,59,9.90
2009,02,21,16,00,9.90
2009,02,21,16,01,9.90
2009,02,21,16,02,9.80
2009,02,21,16,03,9.80
2009,02,21,16,04,9.80
2009,02,21,16,05,9.80
2009,02,21,16,06,9.80
2009,02,21,16,07,9.80
2009,02,21,16,08,9.80
2009,02,21,16,09,9.80
2009,02,21,16,10,9.80
2009,02,21,16,11,9.80
2009,02,21,16,12,9.80
2009,02,21,16,13,9.80
2009,02,21,16,14,9.80
2009,02,21,16,15,9.80
2009,02,21,16,16,9.90
2009,02,21,16,17,9.90
2009,02,21,16,18,9.90
2009,02,21,16,19,9.90
2009,02,21,16,20,9.90
2009,02,21,16,21,9.90
2009,02,21,16,22,9.90
2009,02,21,16,23,9.90
2009,02,21,16,24,9.90
2009,02,21,16,25,9.90
2009,02,21,16,26,9.90
2009,02,21,16,27,9.90
2009,02,21,16,28,9.90
2009,02,21,16,29,9.90
2009,02,21,16,30,9.90
2009,02,21,16,31,9.90
2009,02,21,16,32,9.80
2009,02,21,16,33,9.80
2009,02,21,16,34,9.80
2009,02,21,16,35,9.80
2009,02,21,16,36,9.80
2009,02,21,16,37,9.80
2009,02,21,16,38,9.80
2009,02,21,16,39,9.80
2009,02,21,16,40,9.80
2009,02,21,16,41,9.80
2009,02,21,16,42,9.80
2009,02,21,16,43,9.80
2009,02,21,16,44,9.80
2009,02,21,16,45,9.70
2009,02,21,16,46,9.70
2009,02,21,16,47,9.70
2009,02,21,16,48,9.70
2009,02,21,16,49,9.70
2009,02,21,16,50,9.70
2009,02,21,16,51,9.70
2009,02,21,16,52,9.70
2009,02,21,16,53,9.70
2009,02,21,16,54,9.70
2009,02,21,16,55,9.60
2009,02,21,16,56,9.60
2009,02,21,16,57,9.60
2009,02,21,16,58,9.60
2009,02,21,16,59,9.60
2009,02,21,17,00,9.60
2009,02,21,17,01,9.60
2009,02,21,17,02,9.50
2009,02,21,17,03,9.50
2009,02,21,17,04,9.50
2009,02,21,17,05,9.50
2009,02,21,17,06,9.40
2009,02,21,17,07,9.40
2009,02,21,17,08,9.40
2009,02,21,17,09,9.40
2009,02,21,17,10,9.40
2009,02,21,17,11,9.40
2009,02,21,17,12,9.40
2009,02,21,17,13,9.40
2009,02,21,17,14,9.30
2009,02,21,17,15,9.30
2009,02,21,17,16,9.30
2009,02,21,17,17,9.30
2009,02,21,17,18,9.30
2009,02,21,17,19,9.30
2009,02,21,17,20,9.30
2009,02,21,17,21,9.30
2009,02,21,17,22,9.20
2009,02,21,17,23,9.20
2009,02,21,17,24,9.20
2009,02,21,17,25,9.20
2009,02,21,17,26,9.20
2009,02,21,17,27,9.20
2009,02,21,17,28,9.20
2009,02,21,17,29,9.20
2009,02,21,17,30,9.10
2009,02,21,17,31,9.10
2009,02,21,17,32,9.10
2009,02,21,17,33,9.10
2009,02,21,17,34,9.10
2009,02,21,17,35,9.10
2009,02,21,17,36,9.10
2009,02,21,17,37,9.00
2009,02,21,17,38,9.00
2009,02,21,17,39,9.00
2009,02,21,17,40,9.00
2009,02,21,17,41,9.00
2009,02,21,17,42,9.00
2009,02,21,17,43,9.00
2009,02,21,17,44,9.00
2009,02,21,17,45,9.00
2009,02,21,17,46,9.00
2009,02,21,17,47,9.00
2009,02,21,17,48,8.90
2009,02,21,17,49,8.90
2009,02,21,17,50,8.90
2009,02,21,17,51,8.90
2009,02,21,17,52,8.90
2009,02,21,17,53,8.90
2009,02,21,17,54,8.90
2009,02,21,17,55,8.90
2009,02,21,17,56,8.90
2009,02,21,17,57,8.80
2009,02,21,17,58,8.80
2009,02,21,17,59,8.80
2009,02,21,18,00,8.80